Time,TemperatureF,DewpointF,PressureIn,WindDirection,WindDirectionDegrees,WindSpeedMPH,WindSpeedGustMPH,Humidity,HourlyPrecipIn,Conditions,Clouds,dailyrainin,SoftwareType,DateUTC
2013-05-18 00:13:00,62.6,61.0,30.09,NNE,14,0.0,1.0,93,0.01,,,0.01,weatherlink.com 1.10,2013-05-18 04:13:00,
2013-05-18 00:28:00,62.7,61.0,30.09,NNE,12,0.0,1.0,93,0.03,,,0.03,weatherlink.com 1.10,2013-05-18 04:28:00,
2013-05-18 00:43:00,62.6,61.0,30.09,SW,219,0.0,0.0,94,0.06,,,0.06,weatherlink.com 1.10,2013-05-18 04:43:00,
2013-05-18 00:58:00,62.5,61.0,30.08,SW,221,0.0,0.0,94,0.09,,,0.09,weatherlink.com 1.10,2013-05-18 04:58:00,
2013-05-18 01:13:00,62.4,61.0,30.08,SW,221,0.0,0.0,94,0.10,,,0.11,weatherlink.com 1.10,2013-05-18 05:13:00,
2013-05-18 01:29:00,62.3,61.0,30.08,SW,217,0.0,0.0,94,0.11,,,0.15,weatherlink.com 1.10,2013-05-18 05:29:00,
2013-05-18 01:43:00,62.4,61.0,30.07,SW,221,0.0,0.0,94,0.12,,,0.18,weatherlink.com 1.10,2013-05-18 05:43:00,
2013-05-18 01:58:00,62.3,61.0,30.07,WNW,301,1.0,1.0,94,0.11,,,0.20,weatherlink.com 1.10,2013-05-18 05:58:00,
2013-05-18 02:13:00,62.4,61.0,30.07,WNW,300,0.0,1.0,94,0.11,,,0.22,weatherlink.com 1.10,2013-05-18 06:13:00,
2013-05-18 02:28:00,62.3,61.0,30.06,WNW,300,0.0,1.0,95,0.12,,,0.27,weatherlink.com 1.10,2013-05-18 06:28:00,
2013-05-18 02:43:00,62.2,61.0,30.05,WNW,300,0.0,0.0,95,0.12,,,0.30,weatherlink.com 1.10,2013-05-18 06:43:00,
2013-05-18 02:58:00,62.2,61.0,30.05,North,350,0.0,1.0,95,0.11,,,0.31,weatherlink.com 1.10,2013-05-18 06:58:00,
2013-05-18 03:13:00,62.2,61.0,30.05,North,349,0.0,0.0,95,0.09,,,0.31,weatherlink.com 1.10,2013-05-18 07:13:00,
2013-05-18 03:28:00,62.2,61.0,30.05,North,5,0.0,1.0,95,0.03,,,0.31,weatherlink.com 1.10,2013-05-18 07:28:00,
2013-05-18 03:43:00,62.2,61.0,30.04,NNW,343,0.0,2.0,95,0.01,,,0.31,weatherlink.com 1.10,2013-05-18 07:43:00,
2013-05-18 03:58:00,62.1,61.0,30.04,NNW,330,1.0,2.0,95,0.00,,,0.31,weatherlink.com 1.10,2013-05-18 07:58:00,
2013-05-18 04:13:00,62.1,61.0,30.04,NNW,347,0.0,1.0,95,0.00,,,0.31,weatherlink.com 1.10,2013-05-18 08:13:00,
2013-05-18 04:28:00,62.2,61.0,30.04,SW,226,0.0,1.0,95,0.00,,,0.31,weatherlink.com 1.10,2013-05-18 08:28:00,
2013-05-18 04:44:00,62.2,61.0,30.04,SW,226,0.0,0.0,95,0.00,,,0.31,weatherlink.com 1.10,2013-05-18 08:44:00,
2013-05-18 04:58:00,62.3,61.0,30.04,SW,226,0.0,0.0,95,0.00,,,0.31,weatherlink.com 1.10,2013-05-18 08:58:00,
2013-05-18 05:13:00,62.3,61.0,30.04,SW,226,0.0,0.0,95,0.00,,,0.31,weatherlink.com 1.10,2013-05-18 09:13:00,
2013-05-18 05:28:00,62.3,61.0,30.04,SW,226,0.0,0.0,95,0.00,,,0.31,weatherlink.com 1.10,2013-05-18 09:28:00,
2013-05-18 05:43:00,62.3,61.0,30.05,SW,226,0.0,0.0,95,0.00,,,0.31,weatherlink.com 1.10,2013-05-18 09:43:00,
2013-05-18 05:58:00,62.2,61.0,30.05,SW,226,0.0,0.0,95,0.01,,,0.32,weatherlink.com 1.10,2013-05-18 09:58:00,
2013-05-18 06:13:00,62.2,61.0,30.05,SW,226,0.0,0.0,95,0.01,,,0.32,weatherlink.com 1.10,2013-05-18 10:13:00,
2013-05-18 06:28:00,62.1,61.0,30.05,SW,226,0.0,1.0,95,0.01,,,0.32,weatherlink.com 1.10,2013-05-18 10:28:00,
2013-05-18 06:43:00,62.2,61.0,30.06,SW,226,0.0,1.0,95,0.01,,,0.32,weatherlink.com 1.10,2013-05-18 10:43:00,
2013-05-18 06:58:00,62.2,61.0,30.06,SW,222,0.0,1.0,95,0.00,,,0.32,weatherlink.com 1.10,2013-05-18 10:58:00,
2013-05-18 07:13:00,62.2,61.0,30.06,SW,224,0.0,1.0,95,0.00,,,0.32,weatherlink.com 1.10,2013-05-18 11:13:00,
2013-05-18 07:28:00,62.2,61.0,30.06,SW,223,0.0,1.0,95,0.00,,,0.32,weatherlink.com 1.10,2013-05-18 11:28:00,
2013-05-18 07:43:00,62.2,61.0,30.07,SW,224,0.0,1.0,95,0.00,,,0.32,weatherlink.com 1.10,2013-05-18 11:43:00,
2013-05-18 07:58:00,62.4,61.0,30.06,SW,224,0.0,1.0,95,0.00,,,0.32,weatherlink.com 1.10,2013-05-18 11:58:00,
2013-05-18 08:13:00,62.6,61.0,30.07,North,352,0.0,2.0,95,0.00,,,0.32,weatherlink.com 1.10,2013-05-18 12:13:00,
2013-05-18 08:28:00,62.8,62.0,30.07,North,354,0.0,0.0,96,0.00,,,0.32,weatherlink.com 1.10,2013-05-18 12:28:00,
2013-05-18 08:43:00,63.2,62.0,30.07,North,354,0.0,0.0,96,0.00,,,0.32,weatherlink.com 1.10,2013-05-18 12:43:00,
2013-05-18 08:58:00,62.9,62.0,30.08,West,272,0.0,0.0,95,0.00,,,0.32,weatherlink.com 1.10,2013-05-18 12:58:00,
2013-05-18 09:13:00,62.9,62.0,30.07,SSE,160,0.0,0.0,95,0.00,,,0.32,weatherlink.com 1.10,2013-05-18 13:13:00,
2013-05-18 09:28:00,63.1,62.0,30.07,SW,221,0.0,2.0,95,0.00,,,0.32,weatherlink.com 1.10,2013-05-18 13:28:00,
2013-05-18 09:43:00,64.1,63.0,30.07,SW,228,0.0,1.0,95,0.00,,,0.32,weatherlink.com 1.10,2013-05-18 13:43:00,
2013-05-18 09:58:00,65.0,64.0,30.07,SW,232,0.0,1.0,95,0.00,,,0.32,weatherlink.com 1.10,2013-05-18 13:58:00,
2013-05-18 10:13:00,65.4,64.0,30.07,SSE,155,1.0,1.0,94,0.00,,,0.32,weatherlink.com 1.10,2013-05-18 14:13:00,
2013-05-18 10:28:00,65.5,63.0,30.07,West,260,0.0,3.0,91,0.00,,,0.32,weatherlink.com 1.10,2013-05-18 14:28:00,
2013-05-18 10:43:00,65.8,63.0,30.07,SSW,197,0.0,1.0,91,0.00,,,0.32,weatherlink.com 1.10,2013-05-18 14:43:00,
2013-05-18 10:58:00,66.0,63.0,30.07,South,184,0.0,1.0,91,0.00,,,0.32,weatherlink.com 1.10,2013-05-18 14:58:00,
2013-05-18 11:13:00,66.2,63.0,30.07,West,276,0.0,2.0,90,0.00,,,0.32,weatherlink.com 1.10,2013-05-18 15:13:00,
2013-05-18 11:28:00,66.4,63.0,30.07,South,169,1.0,2.0,89,0.00,,,0.32,weatherlink.com 1.10,2013-05-18 15:28:00,
2013-05-18 11:44:00,66.9,64.0,30.07,SSE,150,0.0,1.0,89,0.00,,,0.32,weatherlink.com 1.10,2013-05-18 15:44:00,
2013-05-18 11:59:00,67.0,64.0,30.07,SW,225,1.0,2.0,89,0.00,,,0.32,weatherlink.com 1.10,2013-05-18 15:59:00,
2013-05-18 12:14:00,67.7,63.0,30.07,SE,146,0.0,2.0,86,0.00,,,0.32,weatherlink.com 1.10,2013-05-18 16:14:00,
2013-05-18 12:29:00,67.6,64.0,30.07,SE,146,0.0,0.0,87,0.00,,,0.32,weatherlink.com 1.10,2013-05-18 16:29:00,
2013-05-18 12:44:00,67.5,64.0,30.07,SE,145,0.0,0.0,89,0.00,,,0.32,weatherlink.com 1.10,2013-05-18 16:44:00,
2013-05-18 12:59:00,67.2,64.0,30.07,SSE,152,0.0,0.0,88,0.00,,,0.32,weatherlink.com 1.10,2013-05-18 16:59:00,
2013-05-18 13:14:00,67.7,65.0,30.07,SSE,152,0.0,0.0,90,0.00,,,0.32,weatherlink.com 1.10,2013-05-18 17:14:00,
2013-05-18 13:29:00,68.8,65.0,30.07,South,186,0.0,0.0,87,0.00,,,0.32,weatherlink.com 1.10,2013-05-18 17:29:00,
2013-05-18 13:44:00,68.3,65.0,30.07,SW,218,0.0,0.0,88,0.00,,,0.32,weatherlink.com 1.10,2013-05-18 17:44:00,
2013-05-18 13:59:00,67.9,64.0,30.07,SW,217,0.0,0.0,88,0.00,,,0.32,weatherlink.com 1.10,2013-05-18 17:59:00,
2013-05-18 14:14:00,68.1,64.0,30.07,SW,225,0.0,0.0,87,0.00,,,0.32,weatherlink.com 1.10,2013-05-18 18:14:00,
2013-05-18 14:29:00,68.3,65.0,30.06,SW,226,0.0,0.0,90,0.00,,,0.32,weatherlink.com 1.10,2013-05-18 18:29:00,
2013-05-18 14:44:00,67.3,64.0,30.06,SSW,210,0.0,0.0,89,0.00,,,0.32,weatherlink.com 1.10,2013-05-18 18:44:00,
2013-05-18 14:59:00,67.4,65.0,30.06,SSW,210,0.0,0.0,90,0.00,,,0.32,weatherlink.com 1.10,2013-05-18 18:59:00,
2013-05-18 15:14:00,67.7,65.0,30.05,SSW,211,0.0,0.0,92,0.00,,,0.32,weatherlink.com 1.10,2013-05-18 19:14:00,
2013-05-18 15:29:00,67.7,65.0,30.06,SSW,211,0.0,1.0,91,0.01,,,0.33,weatherlink.com 1.10,2013-05-18 19:29:00,
2013-05-18 15:45:00,67.4,65.0,30.05,SW,224,1.0,1.0,91,0.02,,,0.34,weatherlink.com 1.10,2013-05-18 19:45:00,
2013-05-18 15:59:00,68.1,65.0,30.05,SW,222,0.0,1.0,91,0.02,,,0.34,weatherlink.com 1.10,2013-05-18 19:59:00,
2013-05-18 16:14:00,68.6,66.0,30.05,SW,218,0.0,1.0,90,0.02,,,0.34,weatherlink.com 1.10,2013-05-18 20:14:00,
2013-05-18 16:29:00,68.6,66.0,30.04,SW,221,0.0,1.0,90,0.01,,,0.34,weatherlink.com 1.10,2013-05-18 20:29:00,
2013-05-18 16:44:00,69.0,66.0,30.04,SW,221,0.0,0.0,90,0.00,,,0.34,weatherlink.com 1.10,2013-05-18 20:44:00,
2013-05-18 16:59:00,69.5,67.0,30.04,SE,138,0.0,0.0,91,0.00,,,0.34,weatherlink.com 1.10,2013-05-18 20:59:00,
2013-05-18 17:14:00,69.8,67.0,30.04,SE,138,0.0,1.0,89,0.00,,,0.34,weatherlink.com 1.10,2013-05-18 21:14:00,
2013-05-18 17:29:00,69.6,66.0,30.03,SE,143,0.0,1.0,89,0.00,,,0.34,weatherlink.com 1.10,2013-05-18 21:29:00,
2013-05-18 17:44:00,69.4,66.0,30.03,SW,231,0.0,0.0,88,0.00,,,0.34,weatherlink.com 1.10,2013-05-18 21:44:00,
2013-05-18 17:59:00,69.1,66.0,30.03,SW,233,0.0,0.0,88,0.00,,,0.34,weatherlink.com 1.10,2013-05-18 21:59:00,
2013-05-18 18:14:00,69.6,66.0,30.04,SW,233,0.0,0.0,88,0.00,,,0.34,weatherlink.com 1.10,2013-05-18 22:14:00,
2013-05-18 18:29:00,69.6,66.0,30.04,SW,233,0.0,0.0,89,0.00,,,0.34,weatherlink.com 1.10,2013-05-18 22:29:00,
2013-05-18 18:44:00,69.0,65.0,30.04,SW,233,0.0,0.0,88,0.00,,,0.34,weatherlink.com 1.10,2013-05-18 22:44:00,
2013-05-18 18:59:00,68.7,65.0,30.04,WSW,258,0.0,0.0,88,0.00,,,0.34,weatherlink.com 1.10,2013-05-18 22:59:00,
2013-05-18 19:14:00,68.6,66.0,30.04,West,259,0.0,0.0,90,0.00,,,0.34,weatherlink.com 1.10,2013-05-18 23:14:00,
2013-05-18 19:29:00,68.0,65.0,30.04,North,4,0.0,0.0,91,0.00,,,0.34,weatherlink.com 1.10,2013-05-18 23:29:00,
2013-05-18 19:44:00,67.6,65.0,30.04,North,4,0.0,0.0,92,0.00,,,0.34,weatherlink.com 1.10,2013-05-18 23:44:00,
2013-05-18 19:59:00,67.3,65.0,30.05,North,4,0.0,0.0,93,0.00,,,0.34,weatherlink.com 1.10,2013-05-18 23:59:00,
2013-05-18 20:14:00,67.1,65.0,30.05,North,4,0.0,0.0,93,0.00,,,0.34,weatherlink.com 1.10,2013-05-19 00:14:00,
2013-05-18 20:29:00,66.8,65.0,30.05,North,4,0.0,0.0,93,0.00,,,0.34,weatherlink.com 1.10,2013-05-19 00:29:00,
2013-05-18 20:44:00,66.4,64.0,30.06,North,4,0.0,0.0,93,0.00,,,0.34,weatherlink.com 1.10,2013-05-19 00:44:00,
2013-05-18 20:59:00,66.2,65.0,30.06,North,4,0.0,0.0,94,0.00,,,0.34,weatherlink.com 1.10,2013-05-19 00:59:00,
2013-05-18 21:14:00,66.1,64.0,30.06,North,4,0.0,0.0,94,0.00,,,0.34,weatherlink.com 1.10,2013-05-19 01:14:00,
2013-05-18 21:29:00,65.9,64.0,30.06,North,4,0.0,0.0,94,0.00,,,0.34,weatherlink.com 1.10,2013-05-19 01:29:00,
2013-05-18 21:44:00,65.6,64.0,30.05,North,4,0.0,0.0,94,0.00,,,0.34,weatherlink.com 1.10,2013-05-19 01:44:00,
2013-05-18 21:59:00,65.2,64.0,30.05,North,4,0.0,0.0,94,0.00,,,0.34,weatherlink.com 1.10,2013-05-19 01:59:00,
2013-05-18 22:14:00,64.9,63.0,30.05,North,4,0.0,0.0,94,0.00,,,0.34,weatherlink.com 1.10,2013-05-19 02:14:00,
2013-05-18 22:29:00,64.8,63.0,30.06,North,359,0.0,0.0,94,0.00,,,0.34,weatherlink.com 1.10,2013-05-19 02:29:00,
2013-05-18 22:44:00,64.5,63.0,30.07,North,358,0.0,0.0,95,0.00,,,0.34,weatherlink.com 1.10,2013-05-19 02:44:00,
2013-05-18 22:59:00,64.4,63.0,30.07,North,358,0.0,0.0,95,0.00,,,0.34,weatherlink.com 1.10,2013-05-19 02:59:00,
2013-05-18 23:14:00,64.2,63.0,30.07,North,358,0.0,0.0,95,0.00,,,0.34,weatherlink.com 1.10,2013-05-19 03:14:00,
2013-05-18 23:29:00,63.9,63.0,30.07,North,358,0.0,0.0,95,0.00,,,0.34,weatherlink.com 1.10,2013-05-19 03:29:00,
2013-05-18 23:44:00,63.9,63.0,30.06,North,358,0.0,0.0,95,0.00,,,0.34,weatherlink.com 1.10,2013-05-19 03:44:00,
2013-05-18 23:59:00,63.9,63.0,30.06,North,358,0.0,0.0,95,0.00,,,0.34,weatherlink.com 1.10,2013-05-19 03:59:00,